Location: Ferchesar
(52.6477°N, 12.4298°E)
Time: 16:21:22
(UTC+01:00)

Tiros 1 - Pass Details

Date: 06 December 2021
Orbit: 629 x 664 km, 48.4° (Epoch: 22 January)

Event Time Altitude Azimuth Distance (km) Brightness Sun altitude
Rises 17:17:24 0° 201° (SSW) 2,908 11.2 -11.4°
Reaches altitude 10° 17:20:30 10° 179° (S) 2,009 10.0 -11.9°
Maximum altitude 17:23:14 16° 143° (SE) 1,672 9.1 -12.2°
Enters shadow 17:25:43 11° 109° (ESE) 1,964 9.2 -12.6°
Drops below altitude 10° 17:26:00 10° 106° (ESE) 2,026 - -12.6°
Sets 17:29:08 0° 85° (E) 2,946 - -13.1°
